Regional Weather Roundup
Issued by NWS Grand Forks, ND

Home | Current Version | Previous Version | Graphics & Text | Print | Product List | Glossary On
Versions: 1 2 3 4 5 6 7 8 9 10 11 12 13 14 15 16 17 18 19 20 21 22 23 24 25 26 27 28 29 30 31 32 33 34 35 36 37 38 39 40 41 42 43 44 45 46 47 48 49 50
000
ASUS43 KFGF 100510
RWRFGF
PRAIRIE TO PINES  WEATHER ROUNDUP
NATIONAL WEATHER SERVICE EASTERN NORTH DAKOTA/GRAND FORKS ND
1100 PM CST FRI DEC 09 2016

 **SATELLITE DATA USED TO AUGMENT SKY COVER AT AUTOMATED STATIONS**
 *****  WEATHER ACROSS EASTERN NORTH DAKOTA  *****

CITY           SKY/WX    TMP DP  RH WIND       PRES   REMARKS
GRAND FORKS    CLOUDY    -4  -9  79 NW5       30.56S WCI -15
GRAND FRKS AFB FLURRIES  -4 -11  71 N8        30.56S WCI -19
DEVILS LAKE    CLOUDY   -14 -18  82 W6        30.52  WCI -28
FARGO          CLOUDY    -5 -13  68 W7        30.56F WCI -19
WAHPETON ARPT  CLEAR     -4 -11  71 NW9       30.56S WCI -20
$$

 ***** WEATHER ACROSS CENTRAL AND WESTERN NORTH DAKOTA  *****

CITY           SKY/WX    TMP DP  RH WIND       PRES   REMARKS
BISMARCK       CLOUDY   -17 -21  82 CALM      30.52S
MINOT          CLOUDY   -15 -20  78 SW8       30.48S WCI -32
JAMESTOWN      CLOUDY   -13 -18  78 NW9       30.51S WCI -31
MINOT AFB      CLOUDY   -20 -26  74 W5        30.48S WCI -33
GARRISON         N/A    -17 -21  82 CALM      30.46F
WILLISTON      CLOUDY   -16 -20  82 NE3       30.44F
DICKINSON      CLOUDY   -14 -19  79 S6        30.33F WCI -28
HETTINGER      CLOUDY    -9 -14  78 E5        30.35F WCI -20
$$

 *****  OTHER AIRPORT OBSERVATIONS IN OUR AREA  *****

CITY           SKY/WX    TMP DP  RH WIND       PRES   REMARKS
WALHALLA         N/A     -8  -8 100 NW5       30.56S WCI -19
GRAFTON AIRPOR FAIR      -4  -9  77 NW8       30.59R WCI -19
VALLEY CITY AR FAIR     -13 -18  77 NW5       30.54R WCI -25
CANDO          FAIR     -15 -20  76 W5        30.53S WCI -27
CAVALIER APRT    N/A     -8 N/A N/A NW7       30.56S WCI -22
GWINNER        FAIR      -6 -13  71 NW9       30.54S WCI -22
SHEYENNE NWR     N/A     -9 -17  66 NW5       29.95S WCI -20
ROLLA          FAIR     -18 -24  76 W5        30.46S WCI -31
 ***** THE ABOVE OBSERVATIONS ARE NON NWS ARE NOT QUALITY
       CONTROLLED AND MAY MIS-REPORT RAIN FOR SNOW...
$$

  *****  WEATHER ACROSS NORTHERN MINNESOTA  *****

CITY           SKY/WX    TMP DP  RH WIND       PRES   REMARKS
FLAG ISLAND    PTCLDY    -2  -8  78 NW13      30.45S WCI -21
WARROAD        MOCLDY    -6  -9  84 W3        30.48S
ROSEAU         CLEAR     -6  -9  84 W7        30.50R WCI -20
HALLOCK        CLOUDY    -2  -8  78 NW12      30.55S WCI -20
THF RVR FALLS  FLURRIES  -9 -13  83 NW5       30.52S WCI -20
BAUDETTE       CLEAR     -3  -8  79 W9        30.45R WCI -19
WASKISH        CLOUDY     0  -6  78 W8        30.47R WCI -15
CROOKSTON      LGT SNOW  -9 -15  77 NW3       30.56S
GREENBUSH NDAW   N/A     -9 -15  77 W3          N/A
$$
  *****  WEATHER ACROSS CENTRAL AND WEST MINNESOTA  *****

CITY           SKY/WX    TMP DP  RH WIND       PRES   REMARKS
FOSSTON        CLOUDY    -9 -13  84 W3        30.50R
BEMIDJI        CLOUDY    -1  -6  80 NW8       30.46S WCI -16
PARK RAPIDS    CLOUDY     2  -6  69 W7        30.45S WCI -11
ELBOW LAKE     FAIR      -3  -6  87 W9        30.52S WCI -19
WADENA         FLURRIES  -8  -9  92 CALM      30.47S
DETROIT LAKES  LGT SNOW  -2  -6  84 NW5       30.49S WCI -12
MOORHEAD       CLOUDY    -6 -11  77 NW7       30.56S WCI -20
FERGUS FALLS   CLOUDY    -2  -8  78 NW9       30.58S WCI -18
MORRIS MN      CLEAR      0  -6  78 NW7       30.52S WCI -13
STAPLES        NOT AVBL
$$
  *****  WEATHER ELSEWHERE ACROSS MINNESOTA  *****

CITY           SKY/WX    TMP DP  RH WIND       PRES   REMARKS
DULUTH         CLOUDY     7  -3  64 NW10      30.40R WCI  -8
INTRNTL FALLS  CLOUDY    -4  -8  83 W7        30.43S WCI -18
ELY            CLOUDY     3  -2  78 W7        30.38S WCI  -9
CLOQUET        FLURRIES   7   0  72 W5        30.42S WCI  -2
WHEATON        CLEAR      0  -6  78 NW7       30.57S WCI -13
BRAINERD       CLOUDY     5  -3  69 NW9       30.47R WCI  -9
HIBBING        CLOUDY     2  -4  76 NW8       30.42R WCI -12
ALEXANDRIA     CLEAR     -3  -7  82 NW6       30.49R WCI -15
SAINT CLOUD    CLEAR      4  -1  80 W8        30.50R WCI  -9
MINNEAPOLIS    CLOUDY    12   3  67 NW9       30.51R WCI   0
$$

  *****  WEATHER ACROSS SOUTH DAKOTA  *****

CITY           SKY/WX    TMP DP  RH WIND       PRES   REMARKS
SIOUX FALLS    FLURRIES  12   9  87 NE6       30.48S WCI   3
BROOKINGS      FLURRIES   4  -1  80 N7        30.47S WCI  -8
WATERTOWN      CLOUDY     1  -4  79 CALM      30.46S
HURON          CLOUDY     5   1  83 N3        30.53R
SISSETON         N/A     -5  -9  83 N7        30.54S WCI -19
ABERDEEN       CLOUDY    -5 -12  72 N8        30.54S WCI -20
MITCHELL       CLOUDY     7   2  80 N7        30.53R WCI  -5
PIERRE         CLOUDY    -4 -10  75 N9        30.48S WCI -20
MOBRIDGE       CLOUDY    -5 -11  75 NW5       30.46F WCI -16
RAPID CITY     CLOUDY     2  -3  80 S9        30.28S WCI -13
$$

  *****  SOME WEATHER IN NEARBY STATES *****

CITY           SKY/WX    TMP DP  RH WIND       PRES   REMARKS
GLASGOW MT     CLOUDY    -4  -9  79 E15       30.29F WCI -25
GREAT FALLS MT CLOUDY     0  -4  83 NE3       30.03F
CHEYENNE WY    CLOUDY    27  20  75 S16       30.06F WCI  15
SCOTTSBLUFF NE CLOUDY    14   5  67 E12       30.17F WCI   0
OMAHA NE       CLOUDY    22  12  65 SE7       30.50S WCI  13
DES MOINES IA  CLOUDY    22  13  68 SW6       30.52S WCI  14
DAVENPORT IA   MOCLDY    18  13  80 W5        30.54S WCI  11
CHICAGO IL     MOCLDY    18  12  77 W6        30.50S WCI  10
EAU CLAIRE WI  CLOUDY    14   9  80 W6        30.45S WCI   5
LA CROSSE WI   MOCLDY    18  10  71 W10       30.50S WCI   6
$$

  *****  SOME NATIONAL WEATHER *****

CITY           SKY/WX    TMP DP  RH WIND       PRES   REMARKS
LA GUARDIA NY  CLEAR     32  15  49 NW14      30.28F WCI  22
RALEIGH NC     CLEAR     28  14  55 CALM      30.50R
ATLANTA GA     CLEAR     31  18  58 NW10      30.45F WCI  22
NEW ORLEANS LA CLEAR     45  25  45 NE10G20   30.51S
OKLAHOMA CITY  CLOUDY    33  16  49 SE12      30.45F WCI  24
ALBUQUERQUE NM CLOUDY    34  25  69 E6        30.30S
SALT LAKE CITY MOCLDY    32  29  88 N7        30.07R
LOS ANGELES CA MOCLDY    60  58  92 SE3       30.18R
BOISE ID       FOG       30  30 100 W5        30.00S VSB 1
SEATTLE WA     LGT RAIN  35  33  92 SE9       29.82R FOG
$$

*** WEATHER ACROSS MANITOBA...SASKATCHEWAN AND ONTARIO ***
                ***ONTARIO***

CITY           SKY/WX    TMP DP  RH WIND       PRES   REMARKS
GERALDTON      FLURRIES   0  -4  85 W5        30.29S WCI -10
THUNDER BAY    FLURRIES  12   3  67 NW12      30.38S WCI  -2
SIOUX LOOKOUT  FLURRIES   1  -4  78 NW7       30.35S WCI -11
TORONTO        PTCLDY    21  14  73 CALM      30.32S
BIG TROUT LK   FLURRIES  -4  -8  84 NW12      30.36S WCI -22
PICKLE LAKE    NOT AVBL
DRYDEN         MOCLDY     0  -4  85 W7        30.36S WCI -13
KENORA         FLURRIES  -4  -8  84 NW5       30.40S WCI -15
$$
                *** MANITOBA***

CITY           SKY/WX    TMP DP  RH WIND       PRES   REMARKS
BRANDON        CLEAR    -17 -22  76 W6        30.49F WCI -31
DAUPHIN        CLEAR    -17 -22  76 W9        30.54S WCI -36
ISLAND LAKE    NOT AVBL
PILOT MOUND      N/A    -18 -24  76 NW3         N/A
THE PAS        FLURRIES  -9 -15  77 W6        30.51F WCI -23
THOMPSON       MOCLDY    -9 -13  84 W2        30.47F
WINNIPEG       PTCLDY    -8 -11  84 W9        30.55R WCI -25
LYNN LAKE      FLURRIES  -6  -8  92 W5        30.41F WCI -17
CHURCHILL      CLEAR     -9 -15  77 NW16      30.36F WCI -32
GILLAM         CLEAR     -9 -15  77 W9        30.42F WCI -27
$$
                ***SASKATCHEWAN***

CITY           SKY/WX    TMP DP  RH WIND       PRES   REMARKS
ESTEVAN        PTCLDY   -18 -24  76 W3        30.44F
KINDERSLEY     PTCLDY   -13 -18  77 E8        30.29F WCI -30
LLOYDMINSTER   CLEAR    -17 -22  76 S6        30.30F WCI -31
PRINCE ALBERT  CRYSTALS -20 -26  76 CALM      30.46F VSB 1
REGINA         CLEAR    -17 -22  76 S7        30.41F WCI -33
YORKTON        CLEAR    -13 -18  77 W7        30.45F WCI -29
N. BATTLEFORD  CLEAR    -18 -24  76 E5        30.41F WCI -31
LA RONGE       CLEAR    -20 -26  76 CALM      30.47F
SASKATOON      CRYSTALS  -9 -13  84 E3        30.43F
SWIFT CURRENT  FLURRIES  -2  -6  84 SE12      30.22F WCI -20
$$
NOTE: THESE ARE AUTOMATED STATIONS WITH LIMITED QUALITY CONTROL
      "FAIR" INDICATES FEW OR NO CLOUDS BELOW 12,000 FEET WITH NO
      SIGNIFICANT WEATHER AND/OR OBSTRUCTIONS TO VISIBILITY.
      SKY/WX - SKY CONDITION AND SIGNIFICANT WEATHER.
      TMP - AIR TEMPERATURE.    DP   - DEWPOINT TEMPERATURE.
      RH  - RELATIVE HUMIDITY.  PRES - PRESSURE.
      HX  - HEAT INDEX.         WCI  - WIND CHILL INDEX.
$



USA.gov is the U.S. government's official web portal to all federal, state and local government web resources and services.